Regional Weather Roundup
Issued by NWS

Home | Current Version | Previous Version | Text Only | Print | Product List | Glossary On
Versions: 1 2 3 4 5 6 7 8 9 10 11 12 13 14 15 16 17 18 19 20 21 22 23 24 25 26 27 28 29 30 31 32 33 34 35 36 37 38 39 40 41 42 43 44 45 46 47 48 49 50
000
ASUS44 KMEG 271310
RWRTN
TENNESSEE HOURLY STATE WEATHER ROUNDUP
NATIONAL WEATHER SERVICE MEMPHIS TN
800 AM CDT SAT AUG 27 2016

TNZ002-004-019-021-049-052-054-088>092-271400-
WEST TENNESSEE

CITY           SKY/WX    TMP DP  RH WIND       PRES   REMARKS
MEMPHIS INTL   MOSUNNY   76  71  85 NW3       30.08R
NWS MEMPHIS      N/A     72 N/A N/A MISG        N/A
JACKSON        FOG       71  71 100 CALM      30.09R VSB 1/4
DYERSBURG      MOSUNNY  N/A N/A N/A MISG        N/A
UNION CITY     SUNNY     73  73 100 CALM      30.08R
PARIS          SUNNY     72  70  94 CALM      30.09S
$$

TNZ008-025-027-028-033-062-065-066-271400-
NORTH MIDDLE TENNESSEE

CITY           SKY/WX    TMP DP  RH WIND       PRES   REMARKS
NASHVILLE      MOSUNNY   77  72  84 CALM      30.10R
CLARKSVILLE    SUNNY     74  71  91 SE3       30.10R
COOKEVILLE     SUNNY     79  73  83 SW3       30.12R
CROSSVILLE     SUNNY     77  69  76 CALM      30.18R
$$

TNZ061-075-076-078-094-096-097-271400-
SOUTH MIDDLE TENNESSEE

CITY           SKY/WX    TMP DP  RH WIND       PRES   REMARKS
FAYETTEVILLE   SUNNY     75  72  88 E3        30.11R
TULLAHOMA      SUNNY     77  70  78 CALM      30.13R
WINCHESTER     SUNNY     79  72  78 E7        30.12R
MCMINNVILLE    SUNNY     79  77  94 CALM      30.12S
COLUMBIA       CLOUDY   N/A N/A N/A CALM      30.09R VSB 3/4
SHELBYVILLE    SUNNY     77  73  88 CALM      30.12R
$$

TNZ017-018-042-046-047-271400-
NORTHEAST TENNESSEE

CITY           SKY/WX    TMP DP  RH WIND       PRES   REMARKS
TRI CITIES     MOSUNNY   73  68  84 NE3       30.19R
ELIZABETHTON   SUNNY     75  68  78 VRB3      30.19R
$$

TNZ012-013-036-069-073-074-271400-
CENTRAL EAST TENNESSEE

CITY           SKY/WX    TMP DP  RH WIND       PRES   REMARKS
KNOXVILLE      SUNNY     78  71  79 CALM      30.13R
OAK RIDGE      SUNNY     77  72  84 CALM      30.15S
GATLINBURG     SUNNY     75  66  73 CALM      30.14R
MORRISTOWN     SUNNY     77  72  83 VRB5      30.15R
$$

TNZ083-085-099-271400-
SOUTHEAST TENNESSEE

CITY           SKY/WX    TMP DP  RH WIND       PRES   REMARKS
CHATTANOOGA    PTSUNNY   74  73  97 CALM      30.13R FOG
$$

SKY/WX REPORTED AS FAIR MEANS FEW OR NO CLOUDS BELOW
12 THOUSAND FEET.





USA.gov is the U.S. government's official web portal to all federal, state and local government web resources and services.